FENGYUN 1C DEB

Satellite information

Favourite Embed

Satellite Type and Status

DEBRISIN ORBIT

Key statistics

Satellite FENGYUN 1C DEB at a glance.

Uptime

9715

Days in orbit

Revolutions

≈ 14.1

Per day

Orbit

SSO

Sun Synchronous Orbit

Inclination

98.3

Latest

Satellite identification and parameters

Extended collection of information and parameters for FENGYUN 1C DEB.

Object identification

Identified? True

Debris? True

Object name: FENGYUN 1C DEB

International designator: 1999-025SN

Object number (NORAD): 30133

Object ID (CCSDS): 30133

Country: PEOPLES REPUBLIC OF CHINA (PRC)

Current information (Y/N): Y

RCS size: SMALL

Orbital parameters

Period: 102.369 minutes

Inclination: 98.3242 deg

SMA: 7248.899 km

Apoapsis: 932.793 km

Periapsis: 808.735 km

RAAN: 154.0765 deg

Eccentricy: 0.00855697

Argument of periapsis: 258.4878 deg

Mean anomaly: 127.6019 deg

Mean motion: 14.06677961 rev/day

Mean motion (dot): 0.0000377 rev/day2

B* drag term: 0.0022198201 1/REarth

Two-line elements (TLE)

Creation date: Dec. 14, 2025, 3:07 a.m.

Reference frame: TEME

Reference center: EARTH

Epoch: Dec. 13, 2025, 10:35 a.m. UTC

TLE line 0: 0 FENGYUN 1C DEB

TLE line 1: 1 30133U 99025SN 25347.44142044 .00003770 00000-0 22198-2 0 9990

TLE line 2: 2 30133 98.3242 154.0765 0085570 258.4878 127.6019 14.06677961963882

Live tracking on map

Real-time ground track for satellite FENGYUN 1C DEB.

In-orbit conjunctions

A list of the most updated potential collisions computed for object FENGYUN 1C DEB.

Target Orbit TCA Probability of collision Miss distance Type
DELTA 1 DEB SSO 2025-08-23 07:05:19 0.0001143826 150.0 (m) DEBRIS
FENGYUN 1C DEB SSO 2025-02-05 07:18:21 0.0001192474 139.0 (m) DEBRIS
CZ-6A DEB SSO 2024-12-16 15:51:09 0.0001243099 147.0 (m) DEBRIS

Associated space launch

Chinese polar orbiting meteorological satellite

FENGYUN 1C DEB was lifted into orbit during the mission ‘Long March 4B | Feng Yun 1C’, on board a Long March 4B space rocket.

The launch took place on May 10, 1999, 1:33 a.m. from Launch Complex 7.

For more information about the launch, click the button.

Launch to space Long March 4B | Feng Yun 1C
Long March 4B | Feng Yun 1C

Agency: N/A

Status: Launch Successful

Launch date: May 10, 1999, 1:33 a.m. UTC

Rocket: Long March 4B

Launch pad: Launch Complex 7

Location: Taiyuan Satellite Launch Center, People's Republic of China

...

Latest news about this satellite

There are no fresh news available about this satellite. Check back as we update our databases every day.


Newsletter sign-up

Weekly statistics, charts and insights to help you stay on top of the space industry.